STARLINK-35938, 66644

Orbit data source: Space-Track

STARLINK-35938, 66644 is a payload satellite owned by SpaceX/Seattle (US) in LEO that was launched on Sun, 23 Nov 2025 UTC via an FALCON 9 launch vehicle from the Air Force Western Test Range (AFWTR). Payload-class satellites include a variety of spacecraft equipped with specific instruments for various scientific and technological missions. These include communications satellites like Starlink; space stations such as the ISS; scientific satellites like the Hubble; Earth observation satellites from companies like Planet Labs, Umbra, and HawkEye 360; GPS; miniature CubeSats for education and research; and military/defense satellites.

Loading next visibility...
Identifier
66644, 2025-271AD
Orbit
LEO
Country
Flag of USUS
Related business
Manufacturer
SpaceX/Seattle
Mission
Operational Commercial Communications
Bus & Motor
STARLINK V2MO, Unknown motor
Mass
575 kg wet, ~530 kg dry
Launch date (UTC)
2025-11-23 (1 month ago)
Launch vehicle
FALCON 9
Launch site
Air Force Western Test Range (AFWTR)
Object type
Payload
Rocket body
Debris
Shape & HBR
Box + 2 Pan, 17.7 m
Radar Cross Section
36.964 m²

Expand to show TLE details & history
Last TLE update: 3 days ago

TLE from 3 days ago
0 STARLINK-35938
1 66644U 25271AD  25352.84359334  .00073731  00000-0  13201-2 0  9999
2 66644  53.1591 157.9473 0000600  93.6054 266.5024 15.49333178  5151
Epoch: 2025-12-18T20:14Z
TLE epoch observation values (Epoch: 2025-12-18T20:14:46.464Z)
Latitude
-0°
Longitude
126.56042°
Altitude
419.608 km
Speed
7.661 km/s
True Right ascension
10h 31m 47s
True Declination
0° 00' 00"
Sunlit
Object was in daylight at epoch
Visualization orbit readout
Latitude
Unknown
Longitude
Unknown
Altitude
Unknown
Speed
Unknown
Apparent Right ascension
Unknown
Apparent Declination
Unknown
Sunlit
N/A
Visualization observer readout
Local Sidereal Time
13:57:32
Azimuth
Unknown
Elevation
Unknown
Doppler factor
Unknown
Orbital elements
Apogee altitude
419.342 km
Perigee altitude
418.526 km
Semi-major axis
6,797.071 km
Eccentricity
0.00006
Inclination
53.1591°
RAAN
157.9473°
Arg. of periapsis
93.6054°
True anomaly
266.49554°
Mean anomaly
266.5024°
Eccentric anomaly
266.49897°
Mean motion
3.87312 °/min
Orbital period
92.95 mins
BSTAR
0.0013201
Loading maneuver chart data...
Computing Atmospheric mass density...
Loading historical data...
Loading historical data...
Loading historical data...
Loading historical data...
Loading historical data...
Loading historical data...
Loading historical data...

Documentation

Showing up to 5 results
|